Regional Weather Roundup
Issued by NWS

Home | Current Version | Previous Version | Text Only | Print | Product List | Glossary On
Versions: 1 2 3 4 5 6 7 8 9 10 11 12 13 14 15 16 17 18 19 20 21 22 23 24 25 26 27 28
000
ASUS44 KBMX 170810
RWRAL

ALABAMA REGIONAL WEATHER ROUNDUP
NATIONAL WEATHER SERVICE BIRMINGHAM AL
300 AM CDT TUE OCT 17 2017

NOTE: "FAIR" INDICATES FEW OR NO CLOUDS BELOW 12,000 FEET
WITH NO SIGNIFICANT WEATHER AND/OR OBSTRUCTIONS TO VISIBILITY.

THE REMARK "TC" DENOTES TEMPERATURE IN DEGREES CELSIUS.

ALZ001>011-014-016>018-020-170900-
NORTH ALABAMA

CITY           SKY/WX    TMP DP  RH WIND       PRES   REMARKS
MUSCLE SHOALS  CLEAR     50  43  77 NE8       30.29S
HUNTSVILLE     CLEAR     47  44  90 NE3       30.26F
DECATUR        CLEAR     45  43  93 N6        30.28S
HALEYVILLE     FAIR      46  44  93 N3        30.28S
GADSDEN        CLEAR     47  46  97 N3        30.26S
$$

ALZ012-013-022-023-030>036-040>044-170900-
WEST CENTRAL ALABAMA

CITY           SKY/WX    TMP DP  RH WIND       PRES   REMARKS
TUSCALOOSA     CLEAR     51  47  86 N7        30.22F
DEMOPOLIS        N/A     51  46  83 N5        30.20F
$$

ALZ015-024>026-033>036-041>044-170900-
CENTRAL ALABAMA

CITY           SKY/WX    TMP DP  RH WIND       PRES   REMARKS
BIRMINGHAM     CLEAR     54  43  66 E5        30.25S
MONTGOMERY     CLOUDY    55  47  74 N6        30.18S
SHELBY CO ARPT CLEAR     54  46  74 VRB5      30.21F
MAXWELL AFB    CLOUDY    55  48  77 N8        30.17S
GREENVILLE     MOCLDY    56  46  69 NE8       30.15F
SELMA          FAIR      50  46  87 CALM      30.18F
PRATTVILLE     FAIR      54  47  77 NE3       30.18S
BESSEMER       FAIR      53  43  68 NE9       30.22F
TALLADEGA      FAIR      49  46  90 CALM      30.25R
PELL CITY      SUNNY     50  46  87 N6        30.24S
MARION         NOT AVBL
SYLACAUGA      FAIR      51  47  86 CALM      30.22S
$$

ALZ019-021-028-029-037-038-045>048-170900-
EAST CENTRAL ALABAMA

CITY           SKY/WX    TMP DP  RH WIND       PRES   REMARKS
ANNISTON       CLEAR     50  44  80 NE3       30.24S
ALEXANDER CITY CLOUDY    54  45  71 NE6       30.20S
AUBURN         PTCLDY    54  46  74 NE12      30.20S
$$

ALZ051>064-170900-
SOUTHWEST ALABAMA

CITY           SKY/WX    TMP DP  RH WIND       PRES   REMARKS
MOBILE         CLEAR     55  48  77 N9        30.14F
BROOKLEY FIELD CLEAR     60  51  72 N13       30.14F
EVERGREEN      CLOUDY    53  48  83 N7        30.15F
$$

ALZ049-050-065>069-170900-
SOUTHEAST ALABAMA

CITY           SKY/WX    TMP DP  RH WIND       PRES   REMARKS
DOTHAN         PTCLDY    55  51  86 NE7       30.16S
OZARK          MOCLDY    56  48  73 N10       30.12F
TROY           PTCLDY    54  49  83 NE6       30.16S
EUFAULA        FAIR      58  51  78 NE6       30.15S
$$




USA.gov is the U.S. government's official web portal to all federal, state and local government web resources and services.